トリトン彗星

157P/Tritton (2022)

English version
Home page
Updated on September 29, 2022

---------------------------------------------------------------------

・ プロフィール

・ 写真集

・ 軌道要素

Epoch 2022 Aug. 9.0 TT = JDT 2459800.5
T 2022 Sept.  9.79226 TT                                Rudenko
q   1.5718668            (2000.0)            P               Q
n   0.14763700     Peri.  155.04990     +0.11943109     -0.97143107
a   3.5454598      Node   287.54726     +0.87101306     +0.20165557
e   0.5566536      Incl.   12.42073     +0.47652122     -0.12512679
P   6.68
From 42 observations 2017 July 17-2022 July 28, mean residual 0".5.
     Nongravitational parameters A1 = -0.48, A2 = +0.8221.

・ 光度変化

        m1 = 13.0 + 5 logΔ + 10.0 log r

---------------------------------------------------------------------

軌道要素はM.P.E.C. 2022-O116に掲載されたものです。
光度グラフはComet for Windowsで作成したものです。

---------------------------------------------------------------------

Copyright(C) Seiichi Yoshida (comet@aerith.net). All rights reserved.